Location: Unspecified
(0.0000°N, 0.0000°E)
Time: 07:13:13
(UTC+00:00)

Transit 2A - All Passes

Search period start: 08 February 2023 00:00
Search period end: 18 February 2023 00:00
Orbit: 593 x 963 km, 66.7° (Epoch: 07 February)

Date Brightness Start Highest point End Pass type
(mag) Time Alt. Az. Time Alt. Az. Time Alt. Az.
08 Feb - 02:26:09 10° NNW 02:32:30 88° WSW 02:38:34 10° SSE visible
08 Feb - 13:21:06 10° SE 13:23:11 13° ESE 13:25:17 10° E daylight
08 Feb - 15:02:26 10° WSW 15:05:58 24° WNW 15:09:39 10° NNW daylight
09 Feb - 01:51:47 10° N 01:58:00 59° ENE 02:03:58 10° SSE night (unlit)
09 Feb - 03:38:46 10° W 03:40:54 12° WSW 03:43:01 10° SW night (unlit)
09 Feb - 14:27:19 10° SW 14:31:27 44° WNW 14:35:49 10° N daylight
10 Feb - 01:17:45 10° N 01:23:30 36° ENE 01:29:02 10° SE night (unlit)
10 Feb - 03:02:00 10° WNW 03:06:25 20° WSW 03:10:43 10° SSW night (unlit)
10 Feb - 13:52:38 10° SSW 13:56:58 86° WNW 14:01:33 10° NNE daylight
11 Feb - 00:44:08 10° NNE 00:48:57 23° ENE 00:53:39 10° ESE night (unlit)
11 Feb - 02:26:27 10° NW 02:31:57 32° WSW 02:37:15 10° S night (unlit)
11 Feb - 13:18:20 10° S 13:22:30 49° ESE 13:26:55 10° NE daylight
12 Feb - 00:11:19 10° NE 00:14:24 14° ENE 00:17:26 10° E night (unlit)
12 Feb - 01:51:23 10° NW 01:57:30 52° WSW 02:03:18 10° S night (unlit)
12 Feb - 12:44:25 10° SSE 12:48:04 26° ESE 12:51:50 10° NE daylight
12 Feb - 14:29:04 10° W 14:30:57 12° WNW 14:32:53 10° NW daylight
13 Feb - 01:16:41 10° NNW 01:23:01 84° WSW 01:29:02 10° SSE night (unlit)
13 Feb - 12:11:15 10° SE 12:13:36 14° ESE 12:16:00 10° ENE daylight
13 Feb - 13:52:56 10° WSW 13:56:23 23° WNW 14:00:01 10° NNW daylight
14 Feb - 00:42:16 10° N 00:48:31 62° ENE 00:54:26 10° SSE night (unlit)
14 Feb - 02:29:53 10° W 02:31:24 11° WSW 02:32:54 10° WSW night (unlit)
14 Feb - 13:17:45 10° SW 13:21:51 41° WNW 13:26:14 10° N daylight
15 Feb - 00:08:11 10° N 00:13:59 38° ENE 00:19:32 10° SE night (unlit)
15 Feb - 01:52:41 10° WNW 01:56:54 19° WSW 02:00:58 10° SSW night (unlit)
15 Feb - 12:43:01 10° SSW 12:47:21 80° WNW 12:51:59 10° NNE daylight
15 Feb - 23:34:30 10° NNE 23:39:26 24° ENE 23:44:11 10° ESE night (unlit)
16 Feb - 01:17:02 10° NW 01:22:26 31° WSW 01:27:35 10° S night (unlit)
16 Feb - 12:08:39 10° S 12:12:53 53° ESE 12:17:22 10° NNE daylight
16 Feb - 23:01:33 10° NE 23:04:51 15° ENE 23:08:05 10° E night (unlit)
17 Feb - 00:41:55 10° NW 00:47:57 49° WSW 00:53:40 10° S night (unlit)
17 Feb - 11:34:41 10° SSE 11:38:26 28° ESE 11:42:20 10° NE daylight
17 Feb - 13:19:39 10° W 13:21:20 12° WNW 13:23:03 10° NW daylight
